Weather History for Findlay, OH

Change the Weather History Date:

Wednesday, November 17, 2010

  Actual Average Record
Temperature  
Mean Temperature 46 °F -  
Max Temperature 52 °F 47 °F 70 °F (1953)
Min Temperature 39 °F 33 °F 10 °F (1959)
Degree Days  
Heating Degree Days 20    
Moisture  
Dew Point 38 °F    
Average Humidity 81    
Maximum Humidity 93    
Minimum Humidity 54    
Precipitation  
Precipitation 0.00 in - - ()
Sea Level Pressure  
Sea Level Pressure 29.84 in    
Wind  
Wind Speed 16 mph (West)    
Max Wind Speed 22 mph    
Max Gust Speed 32 mph    
Visibility 6 miles    
Events Rain    
Averages and records for this station are not official NWS values.
T = Trace of Precipitation, MM = Missing Value Source: NWS Daily Summary

Daily Weather History Graph

Daily Weather History Graph

Search for Another Location

Airport:

Trip Planner

Search our weather history database for the weather conditions in past years. The results will help you decide how hot, cold, wet, or windy it might be!

Date:

Astronomy

Nov. 17, 2010 Rise Set
Actual Time 7:24 AM EST 5:14 PM EST
Civil Twilight 6:54 AM EST 5:44 PM EST
Nautical Twilight 6:21 AM EST 6:17 PM EST
Astronomical Twilight 5:48 AM EST 6:49 PM EST
Moon 2:47 PM EST (11/17) 3:20 AM EST (11/17)
Length of Visible Light 10h 49m
Length of Day
9h 49m
Waxing Gibbous, 85% of the Moon is Illuminated
Nov 17
Waxing Gibbous
Nov 21
Full
Nov 28
Last Quarter
Dec 5
New
Dec 13
First Quarter

Hourly Weather History & Observations

Time (EST) Temp. Windchill Dew Point Humidity Pressure Visibility Wind Dir Wind Speed Gust Speed Precip Events Conditions
12:09 AM 44.6 °F 36.4 °F 41.0 °F 87% 29.42 in 8.0 mi NW 20.7 mph 31.1 mph 0.00 in Rain Light Rain
12:28 AM 42.8 °F 34.5 °F 39.2 °F 87% 29.44 in 8.0 mi NW 18.4 mph 31.1 mph 0.00 in Rain Light Rain
12:53 AM 44.1 °F 35.4 °F 41.0 °F 89% 29.47 in 6.0 mi WNW 21.9 mph 31.1 mph 0.00 in Rain Light Rain
1:53 AM 43.0 °F 34.0 °F 39.9 °F 89% 29.53 in 5.0 mi West 21.9 mph 32.2 mph 0.00 in Rain Light Rain
2:08 AM 42.8 °F 34.3 °F 39.2 °F 87% 29.56 in 5.0 mi West 19.6 mph 28.8 mph 0.00 in Rain Light Rain
2:53 AM 43.0 °F 34.5 °F 39.9 °F 89% 29.61 in 5.0 mi West 19.6 mph 28.8 mph 0.00 in   Overcast
3:22 AM 42.8 °F 34.5 °F 39.2 °F 87% 29.64 in 4.0 mi West 18.4 mph 26.5 mph N/A   Overcast
3:53 AM 43.0 °F 35.7 °F 39.9 °F 89% 29.66 in 5.0 mi West 15.0 mph - N/A   Overcast
4:53 AM 42.1 °F 35.2 °F 39.0 °F 89% 29.70 in 5.0 mi West 12.7 mph 24.2 mph 0.00 in   Overcast
5:36 AM 42.8 °F 34.5 °F 37.4 °F 81% 29.74 in 5.0 mi West 18.4 mph - N/A   Overcast
5:53 AM 41.0 °F 32.8 °F 37.0 °F 86% 29.75 in 5.0 mi West 16.1 mph - N/A   Overcast
6:23 AM 39.2 °F 31.6 °F 35.6 °F 87% 29.77 in 5.0 mi WSW 12.7 mph - N/A   Scattered Clouds
6:53 AM 39.0 °F 31.4 °F 35.1 °F 86% 29.80 in 5.0 mi West 12.7 mph - N/A   Clear
7:53 AM 39.0 °F 31.8 °F 36.0 °F 89% 29.84 in 3.0 mi WSW 11.5 mph - N/A   Clear
8:13 AM 39.2 °F 31.6 °F 37.4 °F 93% 29.85 in 2.5 mi West 12.7 mph - N/A   Clear
8:50 AM 41.0 °F 33.1 °F 37.4 °F 87% 29.88 in 3.0 mi WSW 15.0 mph - N/A   Partly Cloudy
8:53 AM 41.0 °F 33.9 °F 37.9 °F 89% 29.88 in 2.5 mi WSW 12.7 mph - N/A   Partly Cloudy
9:21 AM 42.8 °F 35.4 °F 39.2 °F 87% 29.89 in 3.0 mi WSW 15.0 mph - N/A   Partly Cloudy
9:53 AM 43.0 °F 35.1 °F 37.9 °F 82% 29.91 in 3.0 mi West 17.3 mph - N/A   Haze
10:53 AM 46.9 °F - 39.9 °F 77% 29.93 in 6.0 mi West 13.8 mph - N/A   Haze
11:53 AM 51.1 °F - 39.9 °F 66% 29.94 in 9.0 mi West 12.7 mph - N/A   Clear
12:53 PM 52.0 °F - 37.9 °F 59% 29.94 in 10.0 mi West 13.8 mph - N/A   Clear
1:53 PM 52.0 °F - 36.0 °F 54% 29.96 in 10.0 mi West 16.1 mph - N/A   Partly Cloudy
2:53 PM 50.0 °F - 37.9 °F 63% 29.98 in 7.0 mi WSW 13.8 mph - N/A   Mostly Cloudy
3:53 PM 50.0 °F - 39.9 °F 68% 29.99 in 6.0 mi WSW 13.8 mph - N/A   Haze
4:53 PM 48.0 °F - 39.9 °F 74% 30.02 in 6.0 mi WSW 9.2 mph - N/A   Haze
5:53 PM 46.9 °F - 39.9 °F 77% 30.03 in 7.0 mi WSW 9.2 mph - N/A   Mostly Cloudy
6:53 PM 44.1 °F 39.5 °F 37.0 °F 76% 30.06 in 8.0 mi SW 8.1 mph - N/A   Clear
7:53 PM 43.0 °F 37.2 °F 37.0 °F 80% 30.06 in 8.0 mi SW 10.4 mph - N/A   Partly Cloudy
8:53 PM 42.1 °F 36.1 °F 36.0 °F 79% 30.08 in 8.0 mi West 10.4 mph - N/A   Clear
9:53 PM 41.0 °F 34.3 °F 36.0 °F 82% 30.10 in 7.0 mi WSW 11.5 mph - N/A   Mostly Cloudy
10:53 PM 41.0 °F 34.7 °F 36.0 °F 82% 30.11 in 6.0 mi WSW 10.4 mph - N/A   Haze
11:53 PM 39.0 °F 32.3 °F 36.0 °F 89% 30.12 in 5.0 mi West 10.4 mph - N/A   Scattered Clouds